STARLINK-33617 (63373 NORAD) Tracking and Keplerian Element Data

This shows tracking and keplerian element data for the satellite.

Feedback or suggestion? Click here.




ElementValue
Catalog63373
NameSTARLINK-33617
Epoch Orbit4257
Epoch Day354.18569838
Epoch Year2025
RAAN59.1532
Inclination53.1597
Eccentricity0.0001636
Argument of Perigee74.8948
Mean Anonmoly285.2234
Mean Motion15.30194672
Decay Rate0.00027671
L11 63373U 25063L 25354.18569838 .00027671 00000+0 94304-3 0 9990
L22 63373 53.1597 59.1532 0001636 74.8948 285.2234 15.30194672 42577



Live tracking and technical data element details for STARLINK-33617 (NORAD 63373). STARLINK-33617 can be tracked NOW for your location showing map with azimuth and elevation plus other details from your city location.







IsCatalogInMostPopularTable: catalog: 63373, numindb: 2
Update: records affected: 1



GetName: 63373 STARLINK-33617

Hit Count: updated at: Sun, 08 Feb 2026 16:25:38 GMT